Location: The Saddle
(36.8333°N, 80.3417°W)
Time: 07:28:04
(UTC-05:00)

Vanguard 2 Rocket - Pass Details

Date: 11 December 2023
Orbit: 555 x 3309 km, 32.9° (Epoch: 02 March)

Event Time Altitude Azimuth Distance (km) Brightness Sun altitude
Rises 14:59:31 0° 263° (W) 5,813 11.8 18.6°
Reaches altitude 10° 15:02:48 10° 262° (W) 5,100 11.6 18.2°
Maximum altitude 15:19:19 79° 179° (S) 3,224 10.1 16.0°
Drops below altitude 10° 15:39:42 10° 97° (E) 6,092 10.8 13.1°
Sets 15:44:03 0° 97° (E) 6,937 11.0 12.4°
